Home   Weather   Sacramento   Past weeks

Flag for USA Past Weather in Sacramento, California, USA — Yesterday and Last 2 Weeks

Now
55 °F

Mostly cloudy.


Feels Like: 54 °F
Forecast: 50 / 72 °F
Wind: 5 mph from South

Location: Sacramento Executive Airport

Current Time: May 26, 2018 at 4:53:46 am

Latest Report: May 26, 2018 at 3:53 am


Visibility: 10 mi

Pressure: 30.03 "Hg

Humidity: 93%

Dew Point: 53 °F

Location of SacramentoLocation

Past Weather in Sacramento — Graph

°F

Sacramento Temperature Yesterday

Maximum temperature yesterday: 65 °F (at 4:53 pm)
Minimum temperature yesterday: 53 °F (at 7:18 am)
Average temperature yesterday: 57 °F

High & Low Weather Summary for the Past Weeks

 TemperatureHumidityPressure
High83 °F (May 12, 1:53 pm)100% (May 17, 5:53 am)30.11 "Hg (May 17, 5:53 am)
Low50 °F (May 17, 5:53 am)16% (May 11, 5:53 pm)29.69 "Hg (May 11, 5:53 pm)
Average62 °F70%29.91 "Hg
* Reported May 11 2:53 am — May 26 2:53 am, Sacramento. Weather by CustomWeather, © 2018

Note: Actual official high and low records may vary slightly from our data, if they occured in-between our weather recording intervals... More about our weather records

Advertising

Sacramento Weather History for the Previous 24 Hours

Scroll right to see more
 ConditionsComfort  
Time TempWeatherWind HumidityBarometerVisibility
2:53 am
Sat, May 26
54 °FPassing clouds.3 mph97%30.04 "Hg10 mi
1:53 am54 °FPassing clouds.3 mph93%30.05 "Hg10 mi
12:53 am54 °FOvercast.No wind93%30.06 "Hg10 mi
11:53 pm
Fri, May 25
54 °FClear.5 mph93%30.06 "Hg10 mi
10:53 pm55 °FClear.5 mph90%30.08 "Hg10 mi
9:53 pm57 °FClear.5 mph83%30.08 "Hg10 mi
8:53 pm59 °FPassing clouds.6 mph78%30.08 "Hg10 mi
7:53 pm62 °FPassing clouds.8 mph65%30.07 "Hg10 mi
6:53 pm65 °FPartly sunny.3 mph59%30.06 "Hg10 mi
5:53 pm65 °FOvercast.8 mph59%30.07 "Hg10 mi
4:53 pm65 °FOvercast.6 mph59%30.09 "Hg10 mi
3:53 pm64 °FOvercast.3 mph61%30.10 "Hg10 mi
2:53 pm63 °FOvercast.7 mph65%30.11 "Hg10 mi
1:53 pm62 °FOvercast.6 mph67%30.11 "Hg10 mi
12:53 pm60 °FOvercast.5 mph78%30.11 "Hg10 mi
11:53 am58 °FOvercast.3 mph84%30.11 "Hg10 mi
11:34 am58 °FOvercast.3 mph87%30.11 "Hg10 mi
10:53 am57 °FMostly cloudy.No wind87%30.10 "Hg10 mi
10:28 am57 °FMostly cloudy.7 mph90%30.10 "Hg10 mi
9:53 am56 °FMostly cloudy.8 mph97%30.10 "Hg10 mi
9:31 am56 °FBroken clouds.5 mph97%30.10 "Hg10 mi
9:19 am55 °FMostly cloudy.8 mph96%30.10 "Hg10 mi
8:53 am55 °FMore clouds than sun.8 mph96%30.09 "Hg10 mi
8:39 am54 °FMore clouds than sun.8 mph100%30.09 "Hg10 mi
8:01 am53 °FLight rain. Low clouds.8 mph100%30.08 "Hg8 mi
7:18 am53 °FRain. Fog.5 mph100%30.07 "Hg4 mi
5:53 am54 °FMore clouds than sun.6 mph97%30.03 "Hg10 mi
5:25 am54 °FMostly cloudy.7 mph97%30.03 "Hg10 mi
4:53 am54 °FPassing clouds.8 mph97%30.01 "Hg10 mi
Weather by CustomWeather, © 2018

See weather overview